Aérodrome :
LOGIN :

S'inscrire | Disclaimer

   EN    FR    IT 

 










Légende :    VFR   VFR Marginal   IFR   IFR Intensif   IFR Très Intensif
Visi : 
Plafond : 
>= 8 km
>= 3000ft
5 à 8 km
1000 à 3000 ft
1500m à 5 km
500 à 1000 ft
800 à 1500m
200 à 500 ft
< 800m
< 200 ft
Symboles :   Orages  Brouillard  Fortes neiges  Fortes précipitations  Vent > 20 kt
SIGMETs :   Divers  Orages  Givrage  Turbulence  Onde Orograph.  Cendres Volcan.







- Altitude de l'aérodrome : 18 ft
- Code IATA : AJA
- Voir les cartes d'approche


LFKJ - Ajaccio

DERNIER METAR :
  • 280030Z AUTO 04006KT CAVOK 16/09 Q1020 NOSIG

METARs EXPIRÉS :
  • 280000Z AUTO 05006KT CAVOK 16/09 Q1020 NOSIG
  • 272330Z AUTO 05006KT CAVOK 16/09 Q1020 NOSIG
  • 272300Z AUTO 05006KT CAVOK 17/09 Q1020 NOSIG
  • 272230Z AUTO 04005KT CAVOK 17/10 Q1020 NOSIG

TAF TAF LFKJ
Valide du 27 à 21h jusqu'au 28 à 21h UTC


272000Z 2721/2821 05006KT CAVOK
BECMG 2807/2808 24010KT
TEMPO 2811/2815 FEW040
BECMG 2818/2820 05006KT CAVOK
ATIS : +33 4 95 23 59 85
Pas de NOTAMs connus pour ce terrain.



MET'MAP, la Météo Aéronautique d'un coup d'oeil ! - Copyright ORBIFLY Décembre 2007 - Disclaimer

ORBIFLY MET'MAP TEAM :

Programmation & Développement : Alexandra Zaïnal
Conception & Développement : Baudouin d'Aumeries
Co-Programmation & Développement : Marc-Olivier Méhu
Soutien technique & logistique : Manuel Goepfert

Contact : metmap@orbifly.com




SOURCES & CREDITS :

   NOAA